Starlink 30110

operational
NORAD ID: 57474 Int'l Des: 2023-107 Owner: SPXS Country: US Constellation: starlink
LEOCIRCULAR

关于 Starlink 30110

正在加载描述...

实时位置

正在加载3D地球...

即将过境

高度历史

Altitude vs Time

uPlot chart will show altitude changes over time

两行轨道根数

1 57474U 23107T 25353.00002315 .00443494 00000-0 43283-2 0 9999
2 57474 42.9876 349.5345 0029854 104.7860 158.7241 15.63504822 5810
Epoch: Dec 19, 2025 • Age: 4 hours

当前状态

高度 362.6 km
速度 7.70 km/s
星下点 18.03°N, 1.76°W
发射日期 Jul 28, 2023
运行时间 2.3 years
类型 internet

技术详情

分类 Payload
质量 730.00 kg
干质量 700.00 kg
总质量 730.00 kg
长度 0.30 m
直径 4.10 m
跨度 29.00 m
形状 Box + pan
制造商 SPXS
平台类型 Starlink V2M
阶段状态 In Orbit
所有者/国家 SPXS/US

大型星座

Loading constellations...